Year,Month,Day,Hour,Minute,Value (Times are PST for temperature in C)
2009,04,20,00,00,8.40
2009,04,20,00,01,8.40
2009,04,20,00,02,8.30
2009,04,20,00,03,8.30
2009,04,20,00,04,8.30
2009,04,20,00,05,8.30
2009,04,20,00,06,8.30
2009,04,20,00,07,8.30
2009,04,20,00,08,8.30
2009,04,20,00,09,8.30
2009,04,20,00,10,8.30
2009,04,20,00,11,8.30
2009,04,20,00,12,8.30
2009,04,20,00,13,8.30
2009,04,20,00,14,8.30
2009,04,20,00,15,8.30
2009,04,20,00,16,8.30
2009,04,20,00,17,8.30
2009,04,20,00,18,8.20
2009,04,20,00,19,8.20
2009,04,20,00,20,8.20
2009,04,20,00,21,8.20
2009,04,20,00,22,8.20
2009,04,20,00,23,8.20
2009,04,20,00,24,8.20
2009,04,20,00,25,8.20
2009,04,20,00,26,8.20
2009,04,20,00,27,8.20
2009,04,20,00,28,8.20
2009,04,20,00,29,8.20
2009,04,20,00,30,8.20
2009,04,20,00,31,8.20
2009,04,20,00,32,8.20
2009,04,20,00,33,8.20
2009,04,20,00,34,8.20
2009,04,20,00,35,8.20
2009,04,20,00,36,8.20
2009,04,20,00,37,8.20
2009,04,20,00,38,8.20
2009,04,20,00,39,8.20
2009,04,20,00,40,8.20
2009,04,20,00,41,8.20
2009,04,20,00,42,8.20
2009,04,20,00,43,8.20
2009,04,20,00,44,8.20
2009,04,20,00,45,8.10
2009,04,20,00,46,8.10
2009,04,20,00,47,8.10
2009,04,20,00,48,8.10
2009,04,20,00,49,8.10
2009,04,20,00,50,8.10
2009,04,20,00,51,8.10
2009,04,20,00,52,8.00
2009,04,20,00,53,8.00
2009,04,20,00,54,8.00
2009,04,20,00,55,8.00
2009,04,20,00,56,8.00
2009,04,20,00,57,8.00
2009,04,20,00,58,8.00
2009,04,20,00,59,8.00
2009,04,20,01,00,7.90
2009,04,20,01,01,7.90
2009,04,20,01,02,7.90
2009,04,20,01,03,7.90
2009,04,20,01,04,7.80
2009,04,20,01,05,7.80
2009,04,20,01,06,7.80
2009,04,20,01,07,7.80
2009,04,20,01,08,7.80
2009,04,20,01,09,7.80
2009,04,20,01,10,7.80
2009,04,20,01,11,7.80
2009,04,20,01,12,7.80
2009,04,20,01,13,7.70
2009,04,20,01,14,7.70
2009,04,20,01,15,7.70
2009,04,20,01,16,7.70
2009,04,20,01,17,7.70
2009,04,20,01,18,7.70
2009,04,20,01,19,7.70
2009,04,20,01,20,7.60
2009,04,20,01,21,7.60
2009,04,20,01,22,7.60
2009,04,20,01,23,7.60
2009,04,20,01,24,7.60
2009,04,20,01,25,7.60
2009,04,20,01,26,7.60
2009,04,20,01,27,7.50
2009,04,20,01,28,7.50
2009,04,20,01,29,7.50
2009,04,20,01,30,7.50
2009,04,20,01,31,7.50
2009,04,20,01,32,7.50
2009,04,20,01,33,7.50
2009,04,20,01,34,7.40
2009,04,20,01,35,7.40
2009,04,20,01,36,7.40
2009,04,20,01,37,7.40
2009,04,20,01,38,7.40
2009,04,20,01,39,7.40
2009,04,20,01,40,7.40
2009,04,20,01,41,7.40
2009,04,20,01,42,7.40
2009,04,20,01,43,7.40
2009,04,20,01,44,7.40
2009,04,20,01,45,7.50
2009,04,20,01,46,7.50
2009,04,20,01,47,7.50
2009,04,20,01,48,7.50
2009,04,20,01,49,7.50
2009,04,20,01,50,7.50
2009,04,20,01,51,7.50
2009,04,20,01,52,7.50
2009,04,20,01,53,7.50
2009,04,20,01,54,7.50
2009,04,20,01,55,7.40
2009,04,20,01,56,7.40
2009,04,20,01,57,7.40
2009,04,20,01,58,7.40
2009,04,20,01,59,7.40
2009,04,20,02,00,7.30
2009,04,20,02,01,7.30
2009,04,20,02,02,7.30
2009,04,20,02,03,7.30
2009,04,20,02,04,7.30
2009,04,20,02,05,7.30
2009,04,20,02,06,7.30
2009,04,20,02,07,7.30
2009,04,20,02,08,7.30
2009,04,20,02,09,7.30
2009,04,20,02,10,7.30
2009,04,20,02,11,7.30
2009,04,20,02,12,7.30
2009,04,20,02,13,7.30
2009,04,20,02,14,7.30
2009,04,20,02,15,7.30
2009,04,20,02,16,7.30
2009,04,20,02,17,7.30
2009,04,20,02,18,7.20
2009,04,20,02,19,7.20
2009,04,20,02,20,7.20
2009,04,20,02,21,7.20
2009,04,20,02,22,7.20
2009,04,20,02,23,7.20
2009,04,20,02,24,7.20
2009,04,20,02,25,7.20
2009,04,20,02,26,7.20
2009,04,20,02,27,7.20
2009,04,20,02,28,7.10
2009,04,20,02,29,7.10
2009,04,20,02,30,7.10
2009,04,20,02,31,7.10
2009,04,20,02,32,7.10
2009,04,20,02,33,7.10
2009,04,20,02,34,7.00
2009,04,20,02,35,7.00
2009,04,20,02,36,7.00
2009,04,20,02,37,7.00
2009,04,20,02,38,7.00
2009,04,20,02,39,7.00
2009,04,20,02,40,7.00
2009,04,20,02,41,7.00
2009,04,20,02,42,7.00
2009,04,20,02,43,6.90
2009,04,20,02,44,6.90
2009,04,20,02,45,6.90
2009,04,20,02,46,6.90
2009,04,20,02,47,6.90
2009,04,20,02,48,6.90
2009,04,20,02,49,6.90
2009,04,20,02,50,6.80
2009,04,20,02,51,6.80
2009,04,20,02,52,6.80
2009,04,20,02,53,6.80
2009,04,20,02,54,6.80
2009,04,20,02,55,6.80
2009,04,20,02,56,6.80
2009,04,20,02,57,6.80
2009,04,20,02,58,6.80
2009,04,20,02,59,6.80
2009,04,20,03,00,6.80
2009,04,20,03,01,6.80
2009,04,20,03,02,6.80
2009,04,20,03,03,6.80
2009,04,20,03,04,6.80
2009,04,20,03,05,6.80
2009,04,20,03,06,6.80
2009,04,20,03,07,6.80
2009,04,20,03,08,6.80
2009,04,20,03,09,6.80
2009,04,20,03,10,6.80
2009,04,20,03,11,6.80
2009,04,20,03,12,6.80
2009,04,20,03,13,6.80
2009,04,20,03,14,6.80
2009,04,20,03,15,6.80
2009,04,20,03,16,6.80
2009,04,20,03,17,6.80
2009,04,20,03,18,6.80
2009,04,20,03,19,6.80
2009,04,20,03,20,6.80
2009,04,20,03,21,6.80
2009,04,20,03,22,6.80
2009,04,20,03,23,6.80
2009,04,20,03,24,6.90
2009,04,20,03,25,6.90
2009,04,20,03,26,6.90
2009,04,20,03,27,6.90
2009,04,20,03,28,6.90
2009,04,20,03,29,6.90
2009,04,20,03,30,6.90
2009,04,20,03,31,6.90
2009,04,20,03,32,6.90
2009,04,20,03,33,6.90
2009,04,20,03,34,6.90
2009,04,20,03,35,6.90
2009,04,20,03,36,6.90
2009,04,20,03,37,6.80
2009,04,20,03,38,6.80
2009,04,20,03,39,6.80
2009,04,20,03,40,6.80
2009,04,20,03,41,6.80
2009,04,20,03,42,6.80
2009,04,20,03,43,6.80
2009,04,20,03,44,6.80
2009,04,20,03,45,6.80
2009,04,20,03,46,6.80
2009,04,20,03,47,6.80
2009,04,20,03,48,6.80
2009,04,20,03,49,6.80
2009,04,20,03,50,6.80
2009,04,20,03,51,6.80
2009,04,20,03,52,6.80
2009,04,20,03,53,6.80
2009,04,20,03,54,6.80
2009,04,20,03,55,6.80
2009,04,20,03,56,6.80
2009,04,20,03,57,6.80
2009,04,20,03,58,6.80
2009,04,20,03,59,6.80
2009,04,20,04,00,6.80
2009,04,20,04,01,6.80
2009,04,20,04,02,6.80
2009,04,20,04,03,6.80
2009,04,20,04,04,6.80
2009,04,20,04,05,6.80
2009,04,20,04,06,6.70
2009,04,20,04,07,6.70
2009,04,20,04,08,6.70
2009,04,20,04,09,6.70
2009,04,20,04,10,6.70
2009,04,20,04,11,6.70
2009,04,20,04,12,6.60
2009,04,20,04,13,6.60
2009,04,20,04,14,6.60
2009,04,20,04,15,6.60
2009,04,20,04,16,6.60
2009,04,20,04,17,6.60
2009,04,20,04,18,6.60
2009,04,20,04,19,6.60
2009,04,20,04,20,6.60
2009,04,20,04,21,6.60
2009,04,20,04,22,6.60
2009,04,20,04,23,6.60
2009,04,20,04,24,6.60
2009,04,20,04,25,6.40
2009,04,20,04,26,6.40
2009,04,20,04,27,6.40
2009,04,20,04,28,6.40
2009,04,20,04,29,6.40
2009,04,20,04,30,6.40
2009,04,20,04,31,6.40
2009,04,20,04,32,6.40
2009,04,20,04,33,6.40
2009,04,20,04,34,6.40
2009,04,20,04,35,6.40
2009,04,20,04,36,6.40
2009,04,20,04,37,6.40
2009,04,20,04,38,6.40
2009,04,20,04,39,6.40
2009,04,20,04,40,6.40
2009,04,20,04,41,6.40
2009,04,20,04,42,6.40
2009,04,20,04,43,6.30
2009,04,20,04,44,6.30
2009,04,20,04,45,6.30
2009,04,20,04,46,6.30
2009,04,20,04,47,6.30
2009,04,20,04,48,6.30
2009,04,20,04,49,6.30
2009,04,20,04,50,6.30
2009,04,20,04,51,6.30
2009,04,20,04,52,6.30
2009,04,20,04,53,6.30
2009,04,20,04,54,6.30
2009,04,20,04,55,6.30
2009,04,20,04,56,6.30
2009,04,20,04,57,6.30
2009,04,20,04,58,6.30
2009,04,20,04,59,6.20
2009,04,20,05,00,6.20
2009,04,20,05,01,6.20
2009,04,20,05,02,6.20
2009,04,20,05,03,6.20
2009,04,20,05,04,6.20
2009,04,20,05,05,6.20
2009,04,20,05,06,6.20
2009,04,20,05,07,6.20
2009,04,20,05,08,6.20
2009,04,20,05,09,6.20
2009,04,20,05,10,6.20
2009,04,20,05,11,6.30
2009,04,20,05,12,6.30
2009,04,20,05,13,6.30
2009,04,20,05,14,6.30
2009,04,20,05,15,6.40
2009,04,20,05,16,6.40
2009,04,20,05,17,6.30
2009,04,20,05,18,6.30
2009,04,20,05,19,6.30
2009,04,20,05,20,6.20
2009,04,20,05,21,6.20
2009,04,20,05,22,6.20
2009,04,20,05,23,6.20
2009,04,20,05,24,6.20
2009,04,20,05,25,6.20
2009,04,20,05,26,6.20
2009,04,20,05,27,6.20
2009,04,20,05,28,6.10
2009,04,20,05,29,6.10
2009,04,20,05,30,6.10
2009,04,20,05,31,6.10
2009,04,20,05,32,6.10
2009,04,20,05,33,6.10
2009,04,20,05,34,6.10
2009,04,20,05,35,6.00
2009,04,20,05,36,6.00
2009,04,20,05,37,6.00
2009,04,20,05,38,6.00
2009,04,20,05,39,6.00
2009,04,20,05,40,6.00
2009,04,20,05,41,6.00
2009,04,20,05,42,6.00
2009,04,20,05,43,6.00
2009,04,20,05,44,6.00
2009,04,20,05,45,6.00
2009,04,20,05,46,6.00
2009,04,20,05,47,6.00
2009,04,20,05,48,6.00
2009,04,20,05,49,6.00
2009,04,20,05,50,5.90
2009,04,20,05,51,5.90
2009,04,20,05,52,5.90
2009,04,20,05,53,5.90
2009,04,20,05,54,5.80
2009,04,20,05,55,5.80
2009,04,20,05,56,5.80
2009,04,20,05,57,5.80
2009,04,20,05,58,5.80
2009,04,20,05,59,5.70
2009,04,20,06,00,5.70
2009,04,20,06,01,5.70
2009,04,20,06,02,5.70
2009,04,20,06,03,5.70
2009,04,20,06,04,5.70
2009,04,20,06,05,5.70
2009,04,20,06,06,5.70
2009,04,20,06,07,5.70
2009,04,20,06,08,5.70
2009,04,20,06,09,5.70
2009,04,20,06,10,5.70
2009,04,20,06,11,5.70
2009,04,20,06,12,5.70
2009,04,20,06,13,5.70
2009,04,20,06,14,5.70
2009,04,20,06,15,5.70
2009,04,20,06,16,5.70
2009,04,20,06,17,5.70
2009,04,20,06,18,5.70
2009,04,20,06,19,5.70
2009,04,20,06,20,5.70
2009,04,20,06,21,5.70
2009,04,20,06,22,5.80
2009,04,20,06,23,5.80
2009,04,20,06,24,5.90
2009,04,20,06,25,5.90
2009,04,20,06,26,5.90
2009,04,20,06,27,5.90
2009,04,20,06,28,5.90
2009,04,20,06,29,6.00
2009,04,20,06,30,5.90
2009,04,20,06,31,5.90
2009,04,20,06,32,6.00
2009,04,20,06,33,6.00
2009,04,20,06,34,6.00
2009,04,20,06,35,5.90
2009,04,20,06,36,5.90
2009,04,20,06,37,5.80
2009,04,20,06,38,5.80
2009,04,20,06,39,5.80
2009,04,20,06,40,5.70
2009,04,20,06,41,5.70
2009,04,20,06,42,5.70
2009,04,20,06,43,5.70
2009,04,20,06,44,5.70
2009,04,20,06,45,5.70
2009,04,20,06,46,5.70
2009,04,20,06,47,5.70
2009,04,20,06,48,5.70
2009,04,20,06,49,5.70
2009,04,20,06,50,5.70
2009,04,20,06,51,5.70
2009,04,20,06,52,5.70
2009,04,20,06,53,5.80
2009,04,20,06,54,5.80
2009,04,20,06,55,5.80
2009,04,20,06,56,5.90
2009,04,20,06,57,5.90
2009,04,20,06,58,5.90
2009,04,20,06,59,5.90
2009,04,20,07,00,6.00
2009,04,20,07,01,6.00
2009,04,20,07,02,6.00
2009,04,20,07,03,6.00
2009,04,20,07,04,6.00
2009,04,20,07,05,6.10
2009,04,20,07,06,6.10
2009,04,20,07,07,6.10
2009,04,20,07,08,6.20
2009,04,20,07,09,6.20
2009,04,20,07,10,6.20
2009,04,20,07,11,6.20
2009,04,20,07,12,6.30
2009,04,20,07,13,6.30
2009,04,20,07,14,6.40
2009,04,20,07,15,6.40
2009,04,20,07,16,6.40
2009,04,20,07,17,6.40
2009,04,20,07,18,6.60
2009,04,20,07,19,6.60
2009,04,20,07,20,6.60
2009,04,20,07,21,6.60
2009,04,20,07,22,6.60
2009,04,20,07,23,6.70
2009,04,20,07,24,6.70
2009,04,20,07,25,6.80
2009,04,20,07,26,6.80
2009,04,20,07,27,6.90
2009,04,20,07,28,6.90
2009,04,20,07,29,7.00
2009,04,20,07,30,7.10
2009,04,20,07,31,7.10
2009,04,20,07,32,7.20
2009,04,20,07,33,7.30
2009,04,20,07,34,7.30
2009,04,20,07,35,7.40
2009,04,20,07,36,7.50
2009,04,20,07,37,7.50
2009,04,20,07,38,7.60
2009,04,20,07,39,7.60
2009,04,20,07,40,7.70
2009,04,20,07,41,7.80
2009,04,20,07,42,7.80
2009,04,20,07,43,7.90
2009,04,20,07,44,8.00
2009,04,20,07,45,8.00
2009,04,20,07,46,8.10
2009,04,20,07,47,8.20
2009,04,20,07,48,8.30
2009,04,20,07,49,8.30
2009,04,20,07,50,8.40
2009,04,20,07,51,8.50
2009,04,20,07,52,8.60
2009,04,20,07,53,8.70
2009,04,20,07,54,8.90
2009,04,20,07,55,9.00
2009,04,20,07,56,9.10
2009,04,20,07,57,9.20
2009,04,20,07,58,9.20
2009,04,20,07,59,9.20
2009,04,20,08,00,9.30
2009,04,20,08,01,9.30
2009,04,20,08,02,9.40
2009,04,20,08,03,9.50
2009,04,20,08,04,9.50
2009,04,20,08,05,9.50
2009,04,20,08,06,9.60
2009,04,20,08,07,9.60
2009,04,20,08,08,9.70
2009,04,20,08,09,9.70
2009,04,20,08,10,9.70
2009,04,20,08,11,9.70
2009,04,20,08,12,9.80
2009,04,20,08,13,9.80
2009,04,20,08,14,9.90
2009,04,20,08,15,9.90
2009,04,20,08,16,10.00
2009,04,20,08,17,10.10
2009,04,20,08,18,10.10
2009,04,20,08,19,10.20
2009,04,20,08,20,10.20
2009,04,20,08,21,10.30
2009,04,20,08,22,10.40
2009,04,20,08,23,10.50
2009,04,20,08,24,10.60
2009,04,20,08,25,10.60
2009,04,20,08,26,10.80
2009,04,20,08,27,10.80
2009,04,20,08,28,10.90
2009,04,20,08,29,10.90
2009,04,20,08,30,10.90
2009,04,20,08,31,11.00
2009,04,20,08,32,11.10
2009,04,20,08,33,11.10
2009,04,20,08,34,11.10
2009,04,20,08,35,11.20
2009,04,20,08,36,11.20
2009,04,20,08,37,11.20
2009,04,20,08,38,11.30
2009,04,20,08,39,11.40
2009,04,20,08,40,11.40
2009,04,20,08,41,11.50
2009,04,20,08,42,11.60
2009,04,20,08,43,11.60
2009,04,20,08,44,11.80
2009,04,20,08,45,11.90
2009,04,20,08,46,12.00
2009,04,20,08,47,12.10
2009,04,20,08,48,12.20
2009,04,20,08,49,12.30
2009,04,20,08,50,12.30
2009,04,20,08,51,12.40
2009,04,20,08,52,12.50
2009,04,20,08,53,12.50
2009,04,20,08,54,12.60
2009,04,20,08,55,12.60
2009,04,20,08,56,12.70
2009,04,20,08,57,12.70
2009,04,20,08,58,12.80
2009,04,20,08,59,12.80
2009,04,20,09,00,12.80
2009,04,20,09,01,12.90
2009,04,20,09,02,13.00
2009,04,20,09,03,13.10
2009,04,20,09,04,13.10
2009,04,20,09,05,13.10
2009,04,20,09,06,13.10
2009,04,20,09,07,13.10
2009,04,20,09,08,13.10
2009,04,20,09,09,13.20
2009,04,20,09,10,13.30
2009,04,20,09,11,13.40
2009,04,20,09,12,13.50
2009,04,20,09,13,13.50
2009,04,20,09,14,13.50
2009,04,20,09,15,13.50
2009,04,20,09,16,13.50
2009,04,20,09,17,13.60
2009,04,20,09,18,13.60
2009,04,20,09,19,13.70
2009,04,20,09,20,13.70
2009,04,20,09,21,13.80
2009,04,20,09,22,13.70
2009,04,20,09,23,13.70
2009,04,20,09,24,13.70
2009,04,20,09,25,13.70
2009,04,20,09,26,13.60
2009,04,20,09,27,13.60
2009,04,20,09,28,13.50
2009,04,20,09,29,13.50
2009,04,20,09,30,13.40
2009,04,20,09,31,13.50
2009,04,20,09,32,13.50
2009,04,20,09,33,13.60
2009,04,20,09,34,13.60
2009,04,20,09,35,13.70
2009,04,20,09,36,13.70
2009,04,20,09,37,13.70
2009,04,20,09,38,13.70
2009,04,20,09,39,13.70
2009,04,20,09,40,13.70
2009,04,20,09,41,13.70
2009,04,20,09,42,13.70
2009,04,20,09,43,13.70
2009,04,20,09,44,13.70
2009,04,20,09,45,13.70
2009,04,20,09,46,13.70
2009,04,20,09,47,13.70
2009,04,20,09,48,13.70
2009,04,20,09,49,13.70
2009,04,20,09,50,13.70
2009,04,20,09,51,13.70
2009,04,20,09,52,13.80
2009,04,20,09,53,13.80
2009,04,20,09,54,13.90
2009,04,20,09,55,13.90
2009,04,20,09,56,13.90
2009,04,20,09,57,13.90
2009,04,20,09,58,13.90
2009,04,20,09,59,13.90
2009,04,20,10,00,13.90
2009,04,20,10,01,14.00
2009,04,20,10,02,14.10
2009,04,20,10,03,14.20
2009,04,20,10,04,14.20
2009,04,20,10,05,14.20
2009,04,20,10,06,14.20
2009,04,20,10,07,14.20
2009,04,20,10,08,14.30
2009,04,20,10,09,14.40
2009,04,20,10,10,14.50
2009,04,20,10,11,14.60
2009,04,20,10,12,14.60
2009,04,20,10,13,14.70
2009,04,20,10,14,14.80
2009,04,20,10,15,14.80
2009,04,20,10,16,14.90
2009,04,20,10,17,14.90
2009,04,20,10,18,14.80
2009,04,20,10,19,14.80
2009,04,20,10,20,14.80
2009,04,20,10,21,14.80
2009,04,20,10,22,14.80
2009,04,20,10,23,14.80
2009,04,20,10,24,14.80
2009,04,20,10,25,14.80
2009,04,20,10,26,14.80
2009,04,20,10,27,14.90
2009,04,20,10,28,15.00
2009,04,20,10,29,15.00
2009,04,20,10,30,15.00
2009,04,20,10,31,15.00
2009,04,20,10,32,15.10
2009,04,20,10,33,15.10
2009,04,20,10,34,15.10
2009,04,20,10,35,15.00
2009,04,20,10,36,15.00
2009,04,20,10,37,15.00
2009,04,20,10,38,15.00
2009,04,20,10,39,15.00
2009,04,20,10,40,15.00
2009,04,20,10,41,15.00
2009,04,20,10,42,14.90
2009,04,20,10,43,14.80
2009,04,20,10,44,14.80
2009,04,20,10,45,14.90
2009,04,20,10,46,14.90
2009,04,20,10,47,15.00
2009,04,20,10,48,15.00
2009,04,20,10,49,15.20
2009,04,20,10,50,15.30
2009,04,20,10,51,15.40
2009,04,20,10,52,15.40
2009,04,20,10,53,15.40
2009,04,20,10,54,15.30
2009,04,20,10,55,15.40
2009,04,20,10,56,15.40
2009,04,20,10,57,15.30
2009,04,20,10,58,15.30
2009,04,20,10,59,15.20
2009,04,20,11,00,15.20
2009,04,20,11,01,15.20
2009,04,20,11,02,15.20
2009,04,20,11,03,15.10
2009,04,20,11,04,15.10
2009,04,20,11,05,15.20
2009,04,20,11,06,15.20
2009,04,20,11,07,15.10
2009,04,20,11,08,15.10
2009,04,20,11,09,15.10
2009,04,20,11,10,15.10
2009,04,20,11,11,15.10
2009,04,20,11,12,15.10
2009,04,20,11,13,15.10
2009,04,20,11,14,15.20
2009,04,20,11,15,15.30
2009,04,20,11,16,15.30
2009,04,20,11,17,15.30
2009,04,20,11,18,15.30
2009,04,20,11,19,15.40
2009,04,20,11,20,15.40
2009,04,20,11,21,15.60
2009,04,20,11,22,15.60
2009,04,20,11,23,15.60
2009,04,20,11,24,15.50
2009,04,20,11,25,15.50
2009,04,20,11,26,15.50
2009,04,20,11,27,15.60
2009,04,20,11,28,15.60
2009,04,20,11,29,15.70
2009,04,20,11,30,15.60
2009,04,20,11,31,15.60
2009,04,20,11,32,15.60
2009,04,20,11,33,15.50
2009,04,20,11,34,15.50
2009,04,20,11,35,15.50
2009,04,20,11,36,15.50
2009,04,20,11,37,15.50
2009,04,20,11,38,15.40
2009,04,20,11,39,15.30
2009,04,20,11,40,15.30
2009,04,20,11,41,15.40
2009,04,20,11,42,15.40
2009,04,20,11,43,15.40
2009,04,20,11,44,15.50
2009,04,20,11,45,15.50
2009,04,20,11,46,15.50
2009,04,20,11,47,15.60
2009,04,20,11,48,15.70
2009,04,20,11,49,15.70
2009,04,20,11,50,15.80
2009,04,20,11,51,15.80
2009,04,20,11,52,15.80
2009,04,20,11,53,15.90
2009,04,20,11,54,15.90
2009,04,20,11,55,15.90
2009,04,20,11,56,15.80
2009,04,20,11,57,15.70
2009,04,20,11,58,15.60
2009,04,20,11,59,15.60
2009,04,20,12,00,15.70
2009,04,20,12,01,15.70
2009,04,20,12,02,15.70
2009,04,20,12,03,15.70
2009,04,20,12,04,15.80
2009,04,20,12,05,15.80
2009,04,20,12,06,15.80
2009,04,20,12,07,15.80
2009,04,20,12,08,15.80
2009,04,20,12,09,15.60
2009,04,20,12,10,15.60
2009,04,20,12,11,15.50
2009,04,20,12,12,15.50
2009,04,20,12,13,15.40
2009,04,20,12,14,15.40
2009,04,20,12,15,15.30
2009,04,20,12,16,15.30
2009,04,20,12,17,15.40
2009,04,20,12,18,15.40
2009,04,20,12,19,15.50
2009,04,20,12,20,15.50
2009,04,20,12,21,15.50
2009,04,20,12,22,15.40
2009,04,20,12,23,15.40
2009,04,20,12,24,15.50
2009,04,20,12,25,15.60
2009,04,20,12,26,15.60
2009,04,20,12,27,15.70
2009,04,20,12,28,15.80
2009,04,20,12,29,15.80
2009,04,20,12,30,15.80
2009,04,20,12,31,15.80
2009,04,20,12,32,15.80
2009,04,20,12,33,15.90
2009,04,20,12,34,15.90
2009,04,20,12,35,16.00
2009,04,20,12,36,16.00
2009,04,20,12,37,15.90
2009,04,20,12,38,15.90
2009,04,20,12,39,15.90
2009,04,20,12,40,15.80
2009,04,20,12,41,15.80
2009,04,20,12,42,15.80
2009,04,20,12,43,15.80
2009,04,20,12,44,15.80
2009,04,20,12,45,15.80
2009,04,20,12,46,15.80
2009,04,20,12,47,15.90
2009,04,20,12,48,16.10
2009,04,20,12,49,16.10
2009,04,20,12,50,16.10
2009,04,20,12,51,16.10
2009,04,20,12,52,16.10
2009,04,20,12,53,16.00
2009,04,20,12,54,15.90
2009,04,20,12,55,16.10
2009,04,20,12,56,16.10
2009,04,20,12,57,16.10
2009,04,20,12,58,16.20
2009,04,20,12,59,16.30
2009,04,20,13,00,16.40
2009,04,20,13,01,16.40
2009,04,20,13,02,16.40
2009,04,20,13,03,16.30
2009,04,20,13,04,16.30
2009,04,20,13,05,16.30
2009,04,20,13,06,16.30
2009,04,20,13,07,16.30
2009,04,20,13,08,16.20
2009,04,20,13,09,16.20
2009,04,20,13,10,16.10
2009,04,20,13,11,16.10
2009,04,20,13,12,16.10
2009,04,20,13,13,16.10
2009,04,20,13,14,16.10
2009,04,20,13,15,16.10
2009,04,20,13,16,16.10
2009,04,20,13,17,16.20
2009,04,20,13,18,16.20
2009,04,20,13,19,16.20
2009,04,20,13,20,16.20
2009,04,20,13,21,16.10
2009,04,20,13,22,16.10
2009,04,20,13,23,16.20
2009,04,20,13,24,16.20
2009,04,20,13,25,16.30
2009,04,20,13,26,16.30
2009,04,20,13,27,16.30
2009,04,20,13,28,16.40
2009,04,20,13,29,16.50
2009,04,20,13,30,16.60
2009,04,20,13,31,16.60
2009,04,20,13,32,16.60
2009,04,20,13,33,16.70
2009,04,20,13,34,16.80
2009,04,20,13,35,16.90
2009,04,20,13,36,17.00
2009,04,20,13,37,17.20
2009,04,20,13,38,17.10
2009,04,20,13,39,17.20
2009,04,20,13,40,17.20
2009,04,20,13,41,17.20
2009,04,20,13,42,17.10
2009,04,20,13,43,17.10
2009,04,20,13,44,17.10
2009,04,20,13,45,17.00
2009,04,20,13,46,17.10
2009,04,20,13,47,17.10
2009,04,20,13,48,17.10
2009,04,20,13,49,17.30
2009,04,20,13,50,17.40
2009,04,20,13,51,17.70
2009,04,20,13,52,17.80
2009,04,20,13,53,17.80
2009,04,20,13,54,17.80
2009,04,20,13,55,17.90
2009,04,20,13,56,17.90
2009,04,20,13,57,18.10
2009,04,20,13,58,18.20
2009,04,20,13,59,18.20
2009,04,20,14,00,18.20
2009,04,20,14,01,18.20
2009,04,20,14,02,18.30
2009,04,20,14,03,18.50
2009,04,20,14,04,18.60
2009,04,20,14,05,18.60
2009,04,20,14,06,18.60
2009,04,20,14,07,18.50
2009,04,20,14,08,18.60
2009,04,20,14,09,18.60
2009,04,20,14,10,18.60
2009,04,20,14,11,18.70
2009,04,20,14,12,18.70
2009,04,20,14,13,18.70
2009,04,20,14,14,18.60
2009,04,20,14,15,18.50
2009,04,20,14,16,18.60
2009,04,20,14,17,18.60
2009,04,20,14,18,18.70
2009,04,20,14,19,18.70
2009,04,20,14,20,18.70
2009,04,20,14,21,18.70
2009,04,20,14,22,18.70
2009,04,20,14,23,18.70
2009,04,20,14,24,18.70
2009,04,20,14,25,18.70
2009,04,20,14,26,18.70
2009,04,20,14,27,18.70
2009,04,20,14,28,18.70
2009,04,20,17,52,19.30
2009,04,20,17,53,19.30
2009,04,20,17,54,19.20
2009,04,20,17,55,19.10
2009,04,20,17,56,19.20
2009,04,20,17,57,19.20
2009,04,20,17,58,19.20
2009,04,20,17,59,19.20
2009,04,20,18,00,19.10
2009,04,20,18,01,19.10
2009,04,20,18,02,19.10
2009,04,20,18,03,19.10
2009,04,20,18,04,19.20
2009,04,20,18,05,19.20
2009,04,20,18,06,19.20
2009,04,20,18,07,19.20
2009,04,20,18,08,19.20
2009,04,20,18,09,19.10
2009,04,20,18,10,19.10
2009,04,20,18,11,19.10
2009,04,20,18,12,19.10
2009,04,20,18,13,18.90
2009,04,20,18,14,18.90
2009,04,20,18,15,18.90
2009,04,20,18,16,18.90
2009,04,20,18,17,18.90
2009,04,20,18,18,18.90
2009,04,20,18,19,18.90
2009,04,20,18,20,18.90
2009,04,20,18,21,18.90
2009,04,20,18,22,18.90
2009,04,20,18,23,18.90
2009,04,20,18,24,18.90
2009,04,20,18,25,18.90
2009,04,20,18,26,18.90
2009,04,20,18,27,18.90
2009,04,20,18,28,18.90
2009,04,20,18,29,18.90
2009,04,20,18,30,18.90
2009,04,20,18,31,18.90
2009,04,20,18,32,18.90
2009,04,20,18,33,18.90
2009,04,20,18,34,18.80
2009,04,20,18,35,18.80
2009,04,20,18,36,18.70
2009,04,20,18,37,18.70
2009,04,20,18,38,18.70
2009,04,20,18,39,18.70
2009,04,20,18,40,18.80
2009,04,20,18,41,18.90
2009,04,20,18,42,19.00
2009,04,20,18,43,19.10
2009,04,20,18,44,19.10
2009,04,20,18,45,19.20
2009,04,20,18,46,19.30
2009,04,20,18,47,19.30
2009,04,20,18,48,19.30
2009,04,20,18,49,19.30
2009,04,20,18,50,19.20
2009,04,20,18,51,19.10
2009,04,20,18,52,19.10
2009,04,20,18,53,19.10
2009,04,20,18,54,19.10
2009,04,20,18,55,19.10
2009,04,20,18,56,19.10
2009,04,20,18,57,19.10
2009,04,20,18,58,18.90
2009,04,20,18,59,18.90
2009,04,20,19,00,18.90
2009,04,20,19,01,18.90
2009,04,20,19,02,18.90
2009,04,20,19,03,18.90
2009,04,20,19,04,18.90
2009,04,20,19,05,18.90
2009,04,20,19,06,18.80
2009,04,20,19,07,18.80
2009,04,20,19,08,18.80
2009,04,20,19,09,18.80
2009,04,20,19,10,18.80
2009,04,20,19,11,18.80
2009,04,20,19,12,18.80
2009,04,20,19,13,18.80
2009,04,20,19,14,18.80
2009,04,20,19,15,18.80
2009,04,20,19,16,18.80
2009,04,20,19,17,18.80
2009,04,20,19,18,18.90
2009,04,20,19,19,18.90
2009,04,20,19,20,18.80
2009,04,20,19,21,18.80
2009,04,20,19,22,18.80
2009,04,20,19,23,18.80
2009,04,20,19,24,18.70
2009,04,20,19,25,18.70
2009,04,20,19,26,18.70
2009,04,20,19,27,18.60
2009,04,20,19,28,18.60
2009,04,20,19,29,18.50
2009,04,20,19,30,18.50
2009,04,20,19,31,18.40
2009,04,20,19,32,18.40
2009,04,20,19,33,18.30
2009,04,20,19,34,18.30
2009,04,20,19,35,18.20
2009,04,20,19,36,18.20
2009,04,20,19,37,18.20
2009,04,20,19,38,18.20
2009,04,20,19,39,18.20
2009,04,20,19,40,18.20
2009,04,20,19,41,18.20
2009,04,20,19,42,18.20
2009,04,20,19,43,18.20
2009,04,20,19,44,18.10
2009,04,20,19,45,18.10
2009,04,20,19,46,18.00
2009,04,20,19,47,17.90
2009,04,20,19,48,17.90
2009,04,20,19,49,17.90
2009,04,20,19,50,17.90
2009,04,20,19,51,17.90
2009,04,20,19,52,17.90
2009,04,20,19,53,17.90
2009,04,20,19,54,17.80
2009,04,20,19,55,17.80
2009,04,20,19,56,17.80
2009,04,20,19,57,17.80
2009,04,20,19,58,17.80
2009,04,20,19,59,17.80
2009,04,20,20,00,17.70
2009,04,20,20,01,17.70
2009,04,20,20,02,17.70
2009,04,20,20,03,17.70
2009,04,20,20,04,17.70
2009,04,20,20,05,17.60
2009,04,20,20,06,17.60
2009,04,20,20,07,17.60
2009,04,20,20,08,17.60
2009,04,20,20,09,17.60
2009,04,20,20,10,17.50
2009,04,20,20,11,17.50
2009,04,20,20,12,17.50
2009,04,20,20,13,17.50
2009,04,20,20,14,17.40
2009,04,20,20,15,17.40
2009,04,20,20,16,17.40
2009,04,20,20,17,17.30
2009,04,20,20,18,17.30
2009,04,20,20,19,17.30
2009,04,20,20,20,17.30
2009,04,20,20,21,17.30
2009,04,20,20,22,17.20
2009,04,20,20,23,17.20
2009,04,20,20,24,17.10
2009,04,20,20,25,17.10
2009,04,20,20,26,17.00
2009,04,20,20,27,17.00
2009,04,20,20,28,16.90
2009,04,20,20,29,16.90
2009,04,20,20,30,16.90
2009,04,20,20,31,16.80
2009,04,20,20,32,16.70
2009,04,20,20,33,16.70
2009,04,20,20,34,16.70
2009,04,20,20,35,16.60
2009,04,20,20,36,16.60
2009,04,20,20,37,16.50
2009,04,20,20,38,16.40
2009,04,20,20,39,16.40
2009,04,20,20,40,16.30
2009,04,20,20,41,16.30
2009,04,20,20,42,16.30
2009,04,20,20,43,16.20
2009,04,20,20,44,16.20
2009,04,20,20,45,16.10
2009,04,20,20,46,16.10
2009,04,20,20,47,16.10
2009,04,20,20,48,16.00
2009,04,20,20,49,15.90
2009,04,20,20,50,15.90
2009,04,20,20,51,15.80
2009,04,20,20,52,15.80
2009,04,20,20,53,15.80
2009,04,20,20,54,15.80
2009,04,20,20,55,15.70
2009,04,20,20,56,15.60
2009,04,20,20,57,15.60
2009,04,20,20,58,15.60
2009,04,20,20,59,15.50
2009,04,20,21,00,15.50
2009,04,20,21,01,15.40
2009,04,20,21,02,15.30
2009,04,20,21,03,15.30
2009,04,20,21,04,15.30